Location: *
(50.8667°S, 179.2667°W)
Time: 05:11:01
(UTC+00:00)

CZ-4C R/B - Pass Details

Date: 02 October 2023
Orbit: 542 x 1454 km, 63.4° (Epoch: 10 December)

Event Time Altitude Azimuth Distance (km) Brightness Sun altitude
Exits shadow 14:28:07 38° 356° (N) 1,899 3.6 -25.5°
Maximum altitude 14:31:16 59° 55° (NE) 1,412 3.3 -25.1°
Drops below altitude 10° 14:38:10 10° 131° (SE) 2,898 6.1 -24.3°
Sets 14:40:35 0° 135° (SE) 3,728 7.0 -24.1°
